TJS-15 AKM, 63299

Orbit data source: Space-Track

TJS-15 AKM, 63299 is space debris in GEO originally from a launch on Sun, 09 Mar 2025 UTC launched from the Xichang Space Center, China (XSC). Debris objects in space refer to the collection of defunct objects orbiting the Earth. Examples of debris include non-operational satellites, rocket bodies, and fragments generated from explosions, collisions, or faulty payload assembly.

Loading next visibility...
Identifier
63299, 2025-045C
Orbit
GEO
Country
Flag of CNCN / PRC
Related business
Manufacturer
CAST
Mission
Defense Technology
Bus & Motor
Unknown
Mass
~500 kg wet, ~500 kg dry
Launch date (UTC)
2025-03-09 (1 year ago)
Launch vehicle
Unknown
Launch site
Xichang Space Center, China (XSC)
Object type
Payload
Rocket body
Debris
Shape & HBR
Box, 8.0 m
Radar Cross Section
1.500 m², Large (>1 m²)

Expand to show TLE details & history
Last TLE update: 1 day ago

TLE from 1 day ago
0 TJS-15 AKM
1 63299U 25045C   26170.68366321 -.00000111  00000-0  00000+0 0  9999
2 63299   1.2306  84.8329 0018250  69.6476 289.5806  0.98873159  4632
Epoch: 2026-06-19T16:24Z
TLE epoch observation values (Epoch: 2026-06-19T16:24:28.501Z)
Latitude
0.00001°
Longitude
-70.14926°
Altitude
36,156.671 km
Speed
3.062 km/s
True Right ascension
05h 35m 30s
True Declination
0° 00' 00"
Sunlit
Object was in daylight at epoch
Visualization orbit readout
Latitude
Unknown
Longitude
Unknown
Altitude
Unknown
Speed
Unknown
Apparent Right ascension
Unknown
Apparent Declination
Unknown
Sunlit
N/A
Visualization observer readout
Local Sidereal Time
07:18:44
Azimuth
Unknown
Elevation
Unknown
Doppler factor
Unknown
Orbital elements
Apogee altitude
36,262.032 km
Perigee altitude
36,106.679 km
Semi-major axis
42,562.492 km
Eccentricity
0.00183
Inclination
1.2306°
RAAN
84.8329°
Arg. of periapsis
69.6476°
True anomaly
289.38341°
Mean anomaly
289.5806°
Eccentric anomaly
289.48202°
Mean motion
0.24717 °/min
Orbital period
1,456.46 mins
BSTAR
0
Loading maneuver chart data...
Computing Atmospheric mass density...
Loading historical data...
Loading historical data...
Loading historical data...
Loading historical data...
Loading historical data...
Loading historical data...
Loading historical data...
Other satellites on launch #45 in the year 2025 (2025-03-09 UTC)

Documentation

Showing up to 5 results
|